TimeEDT,TemperatureF,Dew PointF,Humidity,Sea Level PressureIn,VisibilityMPH,Wind Direction,Wind SpeedMPH,Gust SpeedMPH,PrecipitationIn,Events,Conditions,WindDirDegrees,DateUTC
12:15 AM,62.6,59.2,89,30.09,10.0,SE,4.6,-,N/A,,Clear,140,2013-07-13 04:15:00
12:35 AM,62.2,59.2,90,30.09,10.0,SE,4.6,-,N/A,,Clear,140,2013-07-13 04:35:00
12:55 AM,63.0,59.7,89,30.09,10.0,SSE,5.8,-,N/A,,Clear,150,2013-07-13 04:55:00
1:15 AM,63.0,59.7,89,30.09,10.0,SSE,3.5,-,N/A,,Clear,150,2013-07-13 05:15:00
1:35 AM,62.6,57.9,85,30.10,10.0,Calm,Calm,-,N/A,,Clear,0,2013-07-13 05:35:00
1:55 AM,61.9,57.2,85,30.10,10.0,SSE,5.8,-,N/A,,Clear,150,2013-07-13 05:55:00
2:14 AM,61.7,57.4,86,30.11,10.0,South,3.5,-,N/A,,Clear,170,2013-07-13 06:14:00
2:35 AM,61.5,57.6,87,30.10,10.0,South,5.8,-,N/A,,Clear,190,2013-07-13 06:35:00
2:55 AM,62.1,58.5,88,30.11,10.0,South,4.6,-,N/A,,Clear,180,2013-07-13 06:55:00
3:14 AM,62.2,59.5,91,30.11,10.0,South,4.6,-,N/A,,Clear,190,2013-07-13 07:14:00
3:35 AM,62.2,59.5,91,30.12,10.0,SSW,3.5,-,N/A,,Clear,200,2013-07-13 07:35:00
3:54 AM,61.7,59.5,93,30.12,10.0,SSW,3.5,-,N/A,,Clear,200,2013-07-13 07:54:00
4:15 AM,61.3,59.7,94,30.12,10.0,SSW,3.5,-,N/A,,Clear,200,2013-07-13 08:15:00
4:35 AM,61.3,59.2,93,30.11,10.0,SSW,4.6,-,N/A,,Clear,200,2013-07-13 08:35:00
4:54 AM,61.7,59.2,91,30.11,10.0,SSW,3.5,-,N/A,,Clear,210,2013-07-13 08:54:00
5:15 AM,61.9,59.9,93,30.11,10.0,South,4.6,-,N/A,,Clear,190,2013-07-13 09:15:00
5:35 AM,62.2,60.1,93,30.11,10.0,South,6.9,-,N/A,,Clear,180,2013-07-13 09:35:00
5:55 AM,62.6,60.1,91,30.12,10.0,SSW,5.8,-,N/A,,Clear,200,2013-07-13 09:55:00
6:15 AM,62.8,59.9,90,30.12,10.0,South,4.6,-,N/A,,Clear,180,2013-07-13 10:15:00
6:34 AM,62.8,60.4,92,30.12,10.0,South,3.5,-,N/A,,Clear,180,2013-07-13 10:34:00
6:55 AM,63.1,61.2,93,30.11,10.0,South,4.6,-,N/A,,Clear,170,2013-07-13 10:55:00
7:15 AM,63.9,61.7,93,30.13,10.0,South,4.6,-,N/A,,Clear,180,2013-07-13 11:15:00
7:34 AM,64.8,62.1,91,30.15,10.0,SSW,5.8,-,N/A,,Clear,200,2013-07-13 11:34:00
7:55 AM,65.7,62.4,89,30.16,10.0,South,6.9,-,N/A,,Clear,190,2013-07-13 11:55:00
8:15 AM,66.4,62.8,88,30.16,10.0,South,6.9,-,N/A,,Clear,190,2013-07-13 12:15:00
8:34 AM,66.7,62.8,87,30.16,10.0,South,8.1,-,N/A,,Clear,190,2013-07-13 12:34:00
8:55 AM,67.5,63.0,85,30.17,10.0,SSW,6.9,-,N/A,,Clear,210,2013-07-13 12:55:00
9:15 AM,67.6,62.6,84,30.16,10.0,SSW,6.9,-,N/A,,Clear,200,2013-07-13 13:15:00
9:35 AM,68.0,62.4,82,30.16,10.0,South,9.2,-,N/A,,Clear,190,2013-07-13 13:35:00
9:55 AM,69.1,62.8,80,30.16,10.0,South,9.2,-,N/A,,Clear,190,2013-07-13 13:55:00
10:14 AM,70.0,63.0,78,30.17,10.0,South,10.4,-,N/A,,Clear,190,2013-07-13 14:14:00
10:35 AM,67.1,62.1,84,30.17,10.0,South,9.2,-,N/A,,Clear,190,2013-07-13 14:35:00
10:55 AM,68.5,62.6,81,30.17,10.0,SSW,10.4,-,N/A,,Clear,200,2013-07-13 14:55:00
11:14 AM,69.4,62.8,79,30.18,10.0,South,11.5,-,N/A,,Clear,180,2013-07-13 15:14:00
11:35 AM,68.9,62.8,81,30.18,10.0,SSW,10.4,-,N/A,,Clear,210,2013-07-13 15:35:00
11:55 AM,70.2,63.1,78,30.18,10.0,South,11.5,17.3,N/A,,Mostly Cloudy,190,2013-07-13 15:55:00
12:14 PM,69.3,62.8,80,30.18,10.0,South,8.1,-,N/A,,Mostly Cloudy,180,2013-07-13 16:14:00
12:35 PM,71.1,63.3,76,30.18,10.0,South,10.4,16.1,N/A,,Scattered Clouds,180,2013-07-13 16:35:00
12:55 PM,71.2,63.5,76,30.17,10.0,South,10.4,-,N/A,,Clear,170,2013-07-13 16:55:00
1:15 PM,71.1,63.7,77,30.17,10.0,South,11.5,17.3,N/A,,Clear,170,2013-07-13 17:15:00
1:35 PM,71.4,63.7,76,30.17,10.0,South,12.7,16.1,N/A,,Clear,180,2013-07-13 17:35:00
1:55 PM,72.1,63.5,74,30.17,10.0,South,11.5,17.3,N/A,,Clear,180,2013-07-13 17:55:00
2:15 PM,71.4,63.9,77,30.17,10.0,SSE,11.5,18.4,N/A,,Clear,160,2013-07-13 18:15:00
2:35 PM,71.4,63.9,77,30.17,10.0,South,12.7,19.6,N/A,,Clear,180,2013-07-13 18:35:00
2:54 PM,72.1,63.9,75,30.17,10.0,South,11.5,-,N/A,,Clear,170,2013-07-13 18:54:00
3:15 PM,72.3,64.0,75,30.17,10.0,South,8.1,18.4,N/A,,Clear,190,2013-07-13 19:15:00
3:35 PM,72.1,63.7,75,30.17,10.0,South,10.4,-,N/A,,Clear,190,2013-07-13 19:35:00
3:54 PM,71.8,63.7,76,30.17,10.0,South,10.4,-,N/A,,Clear,180,2013-07-13 19:54:00
4:15 PM,71.6,63.7,76,30.18,10.0,South,9.2,-,N/A,,Clear,190,2013-07-13 20:15:00
4:35 PM,71.6,63.5,76,30.17,10.0,South,10.4,-,N/A,,Clear,180,2013-07-13 20:35:00
4:54 PM,72.0,63.3,74,30.17,10.0,SSW,10.4,-,N/A,,Clear,200,2013-07-13 20:54:00
5:15 PM,71.8,63.5,75,30.17,10.0,SSW,10.4,-,N/A,,Clear,210,2013-07-13 21:15:00
5:35 PM,72.0,63.9,76,30.16,10.0,SSW,9.2,-,N/A,,Clear,200,2013-07-13 21:35:00
5:55 PM,71.1,63.5,77,30.17,10.0,South,9.2,-,N/A,,Clear,180,2013-07-13 21:55:00
6:15 PM,71.4,64.0,77,30.17,10.0,SSW,5.8,-,N/A,,Clear,200,2013-07-13 22:15:00
6:35 PM,71.1,62.8,75,30.17,10.0,South,6.9,-,N/A,,Clear,190,2013-07-13 22:35:00
6:55 PM,70.7,62.4,75,30.17,10.0,South,10.4,-,N/A,,Clear,190,2013-07-13 22:55:00
7:15 PM,70.7,61.5,73,30.16,10.0,SW,9.2,-,N/A,,Clear,220,2013-07-13 23:15:00
7:35 PM,72.0,60.1,66,30.16,10.0,SW,6.9,-,N/A,,Clear,220,2013-07-13 23:35:00
7:55 PM,71.2,59.2,66,30.15,10.0,SSW,9.2,-,N/A,,Clear,210,2013-07-13 23:55:00
8:15 PM,69.4,59.4,70,30.15,10.0,SSW,6.9,-,N/A,,Clear,200,2013-07-14 00:15:00
8:35 PM,69.3,59.9,72,30.15,10.0,South,3.5,-,N/A,,Clear,190,2013-07-14 00:35:00
8:54 PM,67.8,60.8,78,30.15,10.0,SSE,6.9,-,N/A,,Clear,160,2013-07-14 00:54:00
9:15 PM,65.8,60.6,83,30.15,10.0,SSW,6.9,-,N/A,,Clear,200,2013-07-14 01:15:00
9:35 PM,66.0,60.4,82,30.15,10.0,SSW,3.5,-,N/A,,Clear,200,2013-07-14 01:35:00
9:54 PM,65.3,60.4,84,30.16,10.0,SSW,4.6,-,N/A,,Clear,200,2013-07-14 01:54:00
10:15 PM,65.5,60.4,84,30.17,10.0,South,4.6,-,N/A,,Clear,190,2013-07-14 02:15:00
10:35 PM,65.3,60.3,84,30.17,10.0,South,4.6,-,N/A,,Clear,190,2013-07-14 02:35:00
10:55 PM,64.6,60.4,86,30.17,10.0,South,4.6,-,N/A,,Clear,180,2013-07-14 02:55:00
11:15 PM,64.4,60.6,88,30.18,10.0,SSE,5.8,-,N/A,,Clear,160,2013-07-14 03:15:00
11:35 PM,64.6,60.8,88,30.17,10.0,SSE,4.6,-,N/A,,Clear,160,2013-07-14 03:35:00
11:55 PM,64.8,61.2,88,30.18,10.0,South,6.9,-,N/A,,Clear,170,2013-07-14 03:55:00